Weather observations for the past three days for
Thomaston, Thomaston-Upson County Airport
Metric (Imperial)
Date Time (edt) Wind (kph) Vis. (km) Weather Sky Cond. Temperature (ºC) Relative Humidity Wind Chill (°C) Heat Index (°C) Pressure Precipitation (cm)
Air Dwpt 6 hour altimeter (cm) sea level (mb) 1 hr 3 hr 6 hr
Max. Min.
10 18:55 NE 6 16.09 Fair CLR 27 15 48% 27 76.28 0.0
10 18:35 N 7 16.09 Fair CLR 27 15 48% 27 76.25 0.0
10 18:15 Calm 16.09 Partly Cloudy SCT048 27 15 48% 27 76.25 0.0
10 17:55 NW 11 16.09 Partly Cloudy SCT048 27 15 48% 27 76.25 0.0
10 17:35 NW 6 16.09 Partly Cloudy SCT050 27 15 48% 27 76.25 0.0
10 17:15 NW 11 16.09 Mostly Cloudy BKN050 27 15 48% 27 76.25 0.0
10 16:55 Calm 16.09 Fair CLR 26 15 51% 27 76.25 0.0
10 16:35 W 9 16.09 Fair CLR 27 15 48% 27 76.25 0.0
10 16:15 W 7 16.09 Partly Cloudy SCT046 27 15 48% 27 76.25 0.0
10 15:55 Calm 16.09 Fair CLR 26 15 51% 27 76.28 0.0
10 15:35 NW 9 16.09 Fair CLR 26 15 51% 27 76.3 0.0
10 15:15 SW 6 16.09 Fair CLR 26 15 51% 27 76.3 0.0
10 14:55 Calm 16.09 Fair CLR 26 15 51% 27 76.3 0.0
10 14:35 SW 7 16.09 Fair CLR 26 16 54% 27 76.33 0.0
10 14:15 SW 7 16.09 Fair CLR 25 15 54% 26 76.33 0.0
10 13:55 Calm 16.09 Partly Cloudy SCT037 25 15 54% 26 76.33 0.0
10 13:35 W 7 16.09 Partly Cloudy SCT037 25 15 54% 26 76.35 0.0
10 13:15 Calm 16.09 Partly Cloudy SCT035 25 16 57% 26 76.38 0.0
10 12:55 SW 6 16.09 Partly Cloudy SCT033 24 16 61% 25 76.4 0.0
10 12:35 Calm 16.09 Partly Cloudy SCT025 23 16 65% 76.4 0.0
10 12:15 W 6 16.09 Mostly Cloudy BKN025 BKN030 22 16 69% 76.4 0.0
10 11:55 Calm 16.09 Mostly Cloudy SCT022 BKN028 BKN033 23 16 65% 76.4 0.0
10 11:35 E 6 16.09 Partly Cloudy SCT020 23 17 69% 76.4 0.0
10 11:15 Calm 16.09 Partly Cloudy SCT018 21 17 78% 76.4 0.0
10 10:55 Calm 16.09 Mostly Cloudy BKN014 21 17 78% 76.4 0.0
10 10:35 N 9 16.09 Overcast OVC012 21 17 78% 76.4 0.0
10 10:15 N 6 16.09 Overcast OVC010 21 17 78% 76.4 0.0
10 09:55 NE 6 16.09 Mostly Cloudy BKN010 20 17 83% 76.4 0.0
10 09:35 N 7 16.09 Mostly Cloudy BKN008 18 17 94% 76.4 0.0
10 09:15 N 9 16.09 Mostly Cloudy BKN006 18 17 94% 76.38 0.0
10 08:55 N 6 16.09 Partly Cloudy SCT006 18 17 94% 76.38 0.0
10 08:35 N 6 16.09 Mostly Cloudy BKN006 17 17 100% 76.35 0.0
10 08:15 NW 6 16.09 Overcast OVC006 17 16 94% 76.35 0.0
10 07:55 Calm 16.09 Overcast OVC004 17 17 100% 76.3 0.0
10 07:35 Calm 11.27 Overcast OVC002 17 17 100% 76.28 0.0
10 07:15 Calm 2.41 Fog/Mist OVC002 17 17 100% 76.25 0.0
10 06:55 Calm 3.22 Fog/Mist OVC002 17 17 100% 76.23 0.0
10 06:35 W 6 4.83 Fog/Mist OVC002 17 17 100% 76.23 0.0
10 06:15 W 6 2.82 Fog/Mist OVC002 17 16 94% 76.2 0.0
10 05:55 Calm 3.22 Fog/Mist OVC002 17 16 94% 76.2 0.0
10 05:35 Calm 6.44 Fog/Mist OVC002 17 16 94% 76.17 0.0
10 05:15 Calm 16.09 Overcast OVC002 17 16 94% 76.17 0.0
10 04:55 NW 6 4.02 Fog/Mist OVC002 17 16 94% 76.15 0.0
10 04:35 NW 7 8.05 Fog/Mist OVC002 17 16 94% 76.15 0.0
10 04:15 Calm 4.83 Fog/Mist OVC002 17 16 94% 76.12 0.0
10 03:55 Calm 6.44 Fog/Mist OVC004 16 16 100% 76.12 0.0
10 03:35 N 9 16.09 Partly Cloudy SCT004 16 16 100% 76.12 0.0
10 03:15 N 7 16.09 Fair CLR 16 16 100% 76.1 0.0
10 02:55 N 7 16.09 Fair CLR 16 16 100% 76.1 0.0
10 02:35 N 9 16.09 Fair CLR 17 16 94% 76.1 0.0
10 02:15 Calm 16.09 Fair CLR 17 16 94% 76.12 0.0
10 01:55 Calm 16.09 Fair CLR 17 16 94% 76.12 0.0
10 01:35 Calm 16.09 Fair CLR 17 17 100% 76.12 0.0
10 01:15 Calm 16.09 Fair CLR 17 16 94% 76.12 0.0
10 00:55 NW 6 16.09 Fair CLR 17 16 94% 76.15 0.0
10 00:35 Calm 16.09 Fair CLR 17 16 94% 76.12 0.0
10 00:15 Calm 16.09 Fair CLR 17 17 100% 76.15 0.0
09 23:55 NW 6 16.09 Fair CLR 17 17 100% 76.17 0.0
09 23:35 Calm 16.09 Fair CLR 18 17 94% 76.17 0.0
09 23:15 Calm 16.09 Fair CLR 17 17 100% 76.17 0.0
09 22:55 Calm 16.09 Fair CLR 18 17 94% 76.17 0.0
09 22:35 Calm 16.09 Fair CLR 17 17 100% 76.15 0.0
09 22:15 Calm 16.09 Fair CLR 17 17 100% 76.15 0.0
09 21:55 Calm 16.09 Fair CLR 18 17 94% 76.12 0.0
09 21:35 Calm 16.09 Fair CLR 19 17 88% 76.1 0.0
09 21:15 Calm 16.09 Fair CLR 19 17 88% 76.1 0.0
09 20:55 Calm 16.09 Fair CLR 19 17 88% 76.07 0.0
09 20:35 Calm 16.09 Fair CLR 20 17 83% 76.05 0.0
09 20:15 Calm 16.09 Partly Cloudy SCT016 SCT026 20 17 83% 76.05 0.0
09 19:55 SW 6 16.09 Mostly Cloudy SCT018 BKN024 20 17 83% 76.05 0.0
09 19:35 SW 7 16.09 Partly Cloudy SCT021 SCT026 20 17 83% 76.02 0.0
09 19:15 SW 9 16.09 Partly Cloudy SCT019 21 17 78% 76.02 0.0
09 18:55 SW 9 16.09 Partly Cloudy SCT021 SCT026 21 16 73% 76 0.0
09 18:35 SW 6 16.09 Mostly Cloudy BKN021 21 17 78% 76 0.0
09 18:15 SW 7 16.09 Mostly Cloudy BKN021 BKN026 21 17 78% 76 0.0
09 17:55 SW 7 16.09 Mostly Cloudy BKN021 21 16 73% 75.97 0.0
09 17:35 S 6 16.09 Overcast OVC023 21 17 78% 75.97 0.0
09 17:15 SW 11 16.09 Mostly Cloudy BKN025 22 16 69% 75.97 0.0
09 16:55 W 6 16.09 Mostly Cloudy BKN025 22 16 69% 75.97 0.0
09 16:35 W 6 16.09 Partly Cloudy SCT025 22 15 65% 75.97 0.0
09 16:15 W 7 16.09 Mostly Cloudy BKN025 22 15 65% 76 0.0
09 15:55 W 6 16.09 Mostly Cloudy BKN025 22 16 69% 76 0.0
09 15:35 W 7 16.09 Partly Cloudy SCT023 SCT028 SCT100 21 15 69% 76 0.0
09 15:15 NW 11 16.09 Overcast OVC023 21 16 73% 76 0.0
09 14:55 W 11 16.09 Mostly Cloudy SCT021 BKN025 21 16 73% 76.02 0.0
09 14:35 W 7 16.09 Partly Cloudy SCT016 SCT022 SCT027 21 16 73% 76.05 0.0
09 14:15 W 9 16.09 Overcast SCT012 OVC027 20 17 83% 76.07 0.0
09 13:55 W 13 16.09 Overcast SCT014 OVC025 20 17 83% 76.1 0.0
09 13:35 W 11 16.09 Overcast BKN014 OVC021 20 17 83% 76.1 0.0
09 13:15 W 9 16.09 Overcast BKN012 OVC018 20 17 83% 76.07 0.0
09 12:55 W 9 16.09 Overcast OVC010 20 17 83% 76.05 0.0
09 12:35 W 13 16.09 Overcast OVC010 19 17 88% 76.05 0.0
09 12:15 W 9 16.09 Overcast BKN008 OVC012 19 17 88% 76.05 0.0
09 11:55 W 11 16.09 Mostly Cloudy BKN006 18 17 94% 76.02 0.0
09 11:35 W 9 16.09 Mostly Cloudy BKN004 BKN110 18 17 94% 76.05 0.0
09 11:15 Calm 16.09 Overcast OVC004 17 17 100% 76 0.0
09 10:55 W 7 16.09 Overcast OVC004 17 17 100% 76.07 0.0
09 10:35 W 11 16.09 Overcast OVC004 17 16 94% 76.1 0.0
09 10:15 S 7 16.09 Overcast OVC004 17 16 94% 76.07 0.0
09 09:55 Calm 16.09 Overcast OVC004 16 16 100% 76.07 0.0
09 09:35 SW 6 16.09 Overcast OVC004 16 16 100% 76.12 0.0
09 09:15 W 9 16.09 Overcast OVC006 16 16 100% 76.1 0.0
09 08:55 W 7 16.09 Overcast OVC006 16 16 100% 76.1 0.0
09 08:35 N 7 16.09 Light Drizzle BKN004 BKN029 OVC110 16 15 94% 76.1 0.0
09 08:15 S 9 16.09 Light Drizzle BKN004 OVC029 16 15 94% 76.05 0.0
09 07:55 S 6 16.09 Mostly Cloudy SCT004 BKN110 16 15 94% 76.05 0.0
09 07:35 S 6 16.09 Partly Cloudy SCT120 16 15 94% 76.02 0.0
09 07:15 S 7 11.27 Fair CLR 15 15 100% 76.05 0.0
09 06:55 S 6 16.09 Partly Cloudy SCT034 SCT043 SCT070 15 15 100% 76.02 0.0
09 06:35 Calm 16.09 Overcast SCT034 SCT043 OVC070 15 15 100% 76.02 0.0
09 06:15 Calm 16.09 Overcast SCT060 OVC070 15 15 100% 76.02 0.0
09 05:55 Calm 16.09 Overcast BKN060 OVC070 15 15 100% 76.02 0.0
09 05:35 Calm 11.27 Partly Cloudy SCT060 15 14 94% 76.02 0.0
09 05:15 Calm 16.09 Fair CLR 15 15 100% 75.97 0.0
09 04:55 Calm 16.09 Partly Cloudy SCT060 15 15 100% 76 0.0
09 04:35 Calm 16.09 Partly Cloudy SCT060 15 15 100% 75.97 0.0
09 04:15 Calm 16.09 Fair CLR 15 14 94% 75.97 0.0
09 03:55 Calm 16.09 Fair CLR 15 15 100% 75.97 0.0
09 03:35 S 7 16.09 Fair CLR 15 14 94% 75.97 0.0
09 03:15 Calm 16.09 Fair CLR 15 15 100% 76 0.0
09 02:55 SE 6 16.09 Fair CLR 15 15 100% 76.02 0.0
09 02:35 Calm 16.09 Fair CLR 15 15 100% 76.02 0.0
09 02:15 Calm 16.09 Fair CLR 15 15 100% 76.02 0.0
09 01:55 S 6 16.09 Fair CLR 15 14 94% 76.07 0.0
09 01:35 Calm 16.09 Fair CLR 15 15 100% 76.07 0.0
09 01:15 SE 6 16.09 Fair CLR 16 15 94% 76.1 0.0
09 00:55 Calm 16.09 Fair CLR 16 15 94% 76.1 0.0
09 00:35 Calm 16.09 Fair CLR 16 15 94% 76.1 0.0
09 00:15 Calm 16.09 Fair CLR 16 15 94% 76.1 0.0
08 23:55 Calm 16.09 Fair CLR 16 15 94% 76.12 0.0
08 23:35 SE 6 16.09 Fair CLR 16 15 94% 76.1 0.0
08 23:15 SE 7 16.09 Fair CLR 17 15 88% 76.1 0.0
08 22:55 SE 6 16.09 Partly Cloudy SCT090 17 15 88% 76.12 0.0
08 22:35 SE 7 16.09 Mostly Cloudy BKN090 16 16 100% 76.12 0.0
08 22:15 Calm 16.09 Mostly Cloudy BKN090 16 15 94% 76.17 0.0
08 21:55 Calm 16.09 Fair CLR 17 15 88% 76.1 0.0
08 21:35 SE 7 11.27 Partly Cloudy SCT110 17 15 88% 76.12 0.0
08 21:15 Calm 16.09 Mostly Cloudy BKN110 17 15 88% 76.15 0.0
08 20:55 S 6 16.09 Overcast OVC110 18 15 83% 76.17 0.0
08 20:35 Calm 16.09 Overcast OVC110 18 15 83% 76.17 0.0
08 20:15 SW 6 16.09 Overcast OVC110 18 15 83% 76.17 0.0
08 19:55 S 7 16.09 Mostly Cloudy BKN110 18 15 83% 76.15 0.0
08 19:35 SW 6 16.09 Mostly Cloudy BKN120 18 14 78% 76.17 0.0
08 19:15 SW 6 16.09 Partly Cloudy SCT120 18 13 73% 76.15 0.0
08 18:55 Calm 16.09 Fair CLR 19 13 68% 76.12 0.0
08 18:35 Calm 16.09 Fair CLR 19 13 68% 76.12 0.0
08 18:15 S 7 16.09 Fair CLR 19 13 68% 76.12 0.0
08 17:55 S 6 16.09 Fair CLR 19 13 68% 76.15 0.0
08 17:35 S 7 16.09 Fair CLR 20 13 64% 76.17 0.0
08 17:15 S 9 16.09 Fair CLR 19 12 64% 76.17 0.0
08 16:55 S 9 16.09 Fair CLR 20 13 64% 76.17 0.0
08 16:35 S 9 16.09 Fair CLR 20 12 60% 76.17 0.0
08 16:15 S 9 16.09 Fair CLR 20 12 60% 76.17 0.0
08 15:55 S 9 16.09 Fair CLR 20 13 64% 76.2 0.0
08 15:35 S 7 16.09 Fair CLR 20 12 60% 76.2 0.0
08 15:15 SE 9 16.09 Fair CLR 20 13 64% 76.17 0.0
08 14:55 Calm 16.09 Fair CLR 20 12 60% 76.2 0.0
08 14:35 E 7 16.09 Fair CLR 21 12 57% 76.23 0.0
08 14:15 SE 6 16.09 Fair CLR 21 11 53% 76.28 0.0
08 13:55 SE 7 16.09 Fair CLR 21 12 57% 76.3 0.0
08 13:35 SE 7 16.09 Fair CLR 20 11 56% 76.3 0.0
08 13:15 NE 6 16.09 Fair CLR 20 11 56% 76.3 0.0
08 12:55 SE 7 16.09 Fair CLR 20 11 56% 76.3 0.0
08 12:35 Calm 16.09 Fair CLR 20 11 56% 76.33 0.0
08 12:15 E 7 16.09 Fair CLR 20 11 56% 76.38 0.0
08 11:55 E 9 16.09 Fair CLR 20 10 53% 76.4 0.0
08 11:35 NE 6 16.09 Fair CLR 18 10 60% 76.4 0.0
08 11:15 NE 6 16.09 Fair CLR 18 10 60% 76.4 0.0
08 10:55 E 6 16.09 Fair CLR 18 10 60% 76.4 0.0
08 10:35 E 9 16.09 Fair CLR 18 10 60% 76.4 0.0
08 10:15 NE 7 16.09 Fair CLR 18 11 64% 76.43 0.0
08 09:55 NE 7 16.09 Fair CLR 17 12 73% 76.4 0.0
08 09:35 NE 6 16.09 Fair CLR 16 12 77% 76.4 0.0
08 09:15 NE 7 16.09 Fair CLR 15 12 82% 76.4 0.0
08 08:55 N 7 16.09 Fair CLR 15 12 82% 76.38 0.0
08 08:35 N 6 16.09 Fair CLR 14 12 88% 76.38 0.0
08 08:15 N 6 16.09 Fair CLR 13 12 94% 76.38 0.0
08 07:55 N 6 16.09 Fair CLR 13 12 94% 76.35 0.0
08 07:35 N 6 16.09 Fair CLR 12 12 100% 76.3 0.0
08 07:15 Calm 16.09 Fair CLR 12 12 100% 76.28 0.0
08 06:55 N 6 16.09 Fair CLR 12 12 100% 76.23 0.0
08 06:35 Calm 16.09 Fair CLR 12 12 100% 76.2 0.0
08 06:15 Calm 16.09 Fair CLR 13 12 94% 76.2 0.0
08 05:55 N 6 16.09 Fair CLR 13 12 94% 76.17 0.0
08 05:35 N 6 16.09 Fair CLR 13 12 94% 76.17 0.0
08 05:15 N 6 16.09 Fair CLR 13 12 94% 76.17 0.0
08 04:55 N 6 16.09 Fair CLR 13 12 94% 76.17 0.0
08 04:35 Calm 16.09 Fair CLR 14 12 88% 76.17 0.0
08 04:15 N 7 16.09 Fair CLR 15 12 82% 76.15 0.0
08 03:55 N 7 16.09 Fair CLR 15 12 82% 76.12 0.0
08 03:35 N 9 16.09 Fair CLR 15 13 88% 76.12 0.0
08 03:15 N 7 16.09 Fair CLR 15 13 88% 76.15 0.0
08 02:55 N 7 16.09 Fair CLR 15 13 88% 76.15 0.0
08 02:35 N 7 16.09 Fair CLR 15 13 88% 76.17 0.0
08 02:15 N 9 16.09 Fair CLR 15 14 94% 76.17 0.0
08 01:55 N 13 16.09 Fair CLR 15 14 94% 76.17 0.0
08 01:35 N 11 16.09 Fair CLR 16 15 94% 76.17 0.0
08 01:15 N 9 16.09 Fair CLR 16 15 94% 76.2 0.0
08 00:55 N 7 16.09 Fair CLR 16 15 94% 76.2 0.0
08 00:35 N 7 16.09 Fair CLR 16 15 94% 76.2 0.0
08 00:15 N 7 16.09 Fair CLR 16 15 94% 76.2 0.0
07 23:55 Calm 16.09 Fair CLR 16 15 94% 76.17 0.0
07 23:35 NW 6 16.09 Fair CLR 17 15 88% 76.17 0.0
07 23:15 N 7 16.09 Fair CLR 17 15 88% 76.17 0.0
07 22:55 N 9 16.09 Fair CLR 18 15 83% 76.15 0.0
07 22:35 N 11 16.09 Fair CLR 18 16 88% 76.15 0.0
07 22:15 N 9 16.09 Fair CLR 18 16 88% 76.12 0.0
07 21:55 N 11 16.09 Fair CLR 19 16 83% 76.1 0.0
07 21:35 NW 9 16.09 Partly Cloudy SCT031 20 17 83% 76.07 0.0
07 21:15 NW 9 16.09 Partly Cloudy SCT031 20 17 83% 76.05 0.0
07 20:55 NW 9 16.09 Partly Cloudy SCT033 20 17 83% 76.05 0.0
07 20:35 NW 11 16.09 Partly Cloudy SCT035 21 17 78% 76.02 0.0
07 20:15 N 9 16.09 Partly Cloudy SCT035 21 17 78% 76.02 0.0
07 19:35 NW 11 16.09 Partly Cloudy SCT036 SCT046 23 17 69% 75.97 0.0
07 19:15 NW 17 16.09 Partly Cloudy SCT036 SCT044 25 17 61% 26 75.97 0.0
Date Time (edt) Wind (kph) Vis. (km) Weather Sky Cond. Air Dwpt Max. Min. Relative Humidity Wind Chill (°C) Heat Index (°C) altimeter (cm) sea level (mb) 1 hr 3 hr 6 hr
6 hour
Temperature (ºC) Pressure Precipitation (cm)